| time (UTC) | temp C | wind direction | speed KPH | gust KPH | rain 1hr cm | rain 24hr cm | rain mn cm | humidity % | barometer mb |
| 20260505214321 | 3 | 203 | 4.8 | 22.5 | 0.05 | 0.43 | 0.43 | 95 | 1012.1 |
| 20260505213821 | 3 | 174 | 4.8 | 22.5 | 0.05 | 0.43 | 0.43 | 95 | 1012.1 |
| 20260505213322 | 3 | 130 | 4.8 | 22.5 | 0.05 | 0.43 | 0.43 | 95 | 1012.2 |
| 20260505213041 | 3 | 180 | 4.8 | 12.9 | 0.03 | 0.41 | 0.41 | 95 | 1012.1 |
| 20260505212541 | 3 | 100 | 3.2 | 12.9 | 0.05 | 0.41 | 0.41 | 95 | 1012.2 |
| 20260505211821 | 3 | 184 | 3.2 | 6.4 | 0.05 | 0.41 | 0.41 | 95 | 1012.3 |
| 20260505211542 | 3 | 90 | 3.2 | 8.0 | 0.05 | 0.41 | 0.41 | 95 | 1012.4 |
| 20260505210808 | 3 | 186 | 3.2 | 8.0 | 0.05 | 0.41 | 0.41 | 95 | 1012.4 |
| 20260505210302 | 3 | 202 | 3.2 | 14.5 | 0.08 | 0.41 | 0.41 | 95 | 1012.4 |
| 20260505210024 | 3 | 102 | 3.2 | 14.5 | 0.05 | 0.38 | 0.38 | 95 | 1012.4 |
| 20260505205305 | 3 | 120 | 3.2 | 14.5 | 0.08 | 0.38 | 0.38 | 95 | 1012.5 |
| 20260505204801 | 3 | 92 | 3.2 | 14.5 | 0.08 | 0.38 | 0.38 | 95 | 1012.7 |
| 20260505204300 | 3 | 112 | 3.2 | 8.0 | 0.08 | 0.38 | 0.38 | 95 | 1012.5 |
| 20260505204019 | 3 | 132 | 3.2 | 6.4 | 0.10 | 0.38 | 0.38 | 95 | 1012.4 |
| 20260505203300 | 3 | 96 | 3.2 | 9.7 | 0.10 | 0.38 | 0.38 | 95 | 1012.5 |
| 20260505202800 | 3 | 103 | 3.2 | 9.7 | 0.10 | 0.38 | 0.38 | 95 | 1012.7 |
| 20260505202751 | 3 | 109 | 3.2 | 9.7 | 0.10 | 0.36 | 0.36 | 95 | 1012.8 |
| 20260505201801 | 3 | 107 | 3.2 | 12.9 | 0.10 | 0.36 | 0.36 | 94 | 1012.9 |
| 20260505201300 | 3 | 127 | 3.2 | 12.9 | 0.10 | 0.36 | 0.36 | 94 | 1013.0 |
| 20260505201026 | 3 | 122 | 1.6 | 6.4 | 0.10 | 0.36 | 0.36 | 94 | 1013.0 |
| 20260505200304 | 3 | 169 | 3.2 | 9.7 | 0.10 | 0.33 | 0.33 | 94 | 1013.1 |
| 20260505200246 | 3 | 178 | 3.2 | 9.7 | 0.10 | 0.33 | 0.33 | 94 | 1013.3 |
| 20260505195304 | 3 | 114 | 1.6 | 9.7 | 0.08 | 0.30 | 0.30 | 94 | 1013.3 |
| 20260505194759 | 3 | 71 | 1.6 | 4.8 | 0.08 | 0.30 | 0.30 | 95 | 1013.3 |
| 20260505194259 | 3 | 126 | 1.6 | 6.4 | 0.10 | 0.30 | 0.30 | 95 | 1013.4 |
| 20260505193800 | 3 | 134 | 3.2 | 8.0 | 0.08 | 0.28 | 0.28 | 94 | 1013.4 |
| 20260505193300 | 3 | 111 | 3.2 | 11.3 | 0.08 | 0.28 | 0.28 | 94 | 1013.3 |
| 20260505193018 | 3 | 113 | 3.2 | 14.5 | 0.10 | 0.28 | 0.28 | 94 | 1013.3 |
| 20260505192300 | 3 | 84 | 1.6 | 14.5 | 0.08 | 0.25 | 0.28 | 94 | 1013.4 |
| 20260505191800 | 3 | 116 | 1.6 | 9.7 | 0.08 | 0.25 | 0.25 | 94 | 1013.4 |
| 20260505191300 | 3 | 124 | 1.6 | 9.7 | 0.08 | 0.25 | 0.25 | 94 | 1013.4 |
| 20260505190802 | 3 | 77 | 3.2 | 11.3 | 0.10 | 0.25 | 0.25 | 94 | 1013.4 |
| 20260505190302 | 3 | 205 | 3.2 | 11.3 | 0.08 | 0.23 | 0.23 | 94 | 1013.5 |
| 20260505185800 | 3 | 186 | 1.6 | 9.7 | 0.08 | 0.23 | 0.23 | 94 | 1013.5 |
| 20260505185305 | 3 | 121 | 1.6 | 9.7 | 0.10 | 0.23 | 0.23 | 94 | 1013.5 |
| 20260505184801 | 3 | 171 | 1.6 | 14.5 | 0.10 | 0.23 | 0.23 | 94 | 1013.6 |
| 20260505184300 | 3 | 151 | 1.6 | 14.5 | 0.08 | 0.20 | 0.20 | 94 | 1013.6 |
| 20260505183754 | 3 | 157 | 1.6 | 4.8 | 0.08 | 0.20 | 0.20 | 94 | 1013.6 |
| 20260505183253 | 3 | 123 | 1.6 | 4.8 | 0.08 | 0.20 | 0.20 | 94 | 1013.6 |
| 20260505182750 | 3 | 126 | 1.6 | 8.0 | 0.08 | 0.18 | 0.18 | 94 | 1013.7 |
| 20260505182250 | 3 | 113 | 1.6 | 8.0 | 0.08 | 0.18 | 0.18 | 94 | 1013.9 |
| 20260505182015 | 3 | 138 | 1.6 | 6.4 | 0.08 | 0.18 | 0.18 | 93 | 1013.9 |
| 20260505181248 | 3 | 119 | 0.0 | 4.8 | 0.10 | 0.18 | 0.18 | 93 | 1014.0 |
| 20260505180747 | 3 | 118 | 0.0 | 3.2 | 0.08 | 0.15 | 0.15 | 93 | 1014.0 |
| 20260505180246 | 3 | 117 | 1.6 | 3.2 | 0.10 | 0.15 | 0.15 | 93 | 1014.2 |
| 20260505175743 | 3 | 114 | 1.6 | 9.7 | 0.10 | 0.15 | 0.15 | 93 | 1014.1 |
| 20260505175242 | 3 | 112 | 1.6 | 9.7 | 0.10 | 0.13 | 0.13 | 93 | 1014.2 |
| 20260505174742 | 3 | 40 | 1.6 | 9.7 | 0.10 | 0.13 | 0.13 | 93 | 1014.3 |
| 20260505174243 | 3 | 172 | 1.6 | 9.7 | 0.10 | 0.13 | 0.13 | 92 | 1014.2 |
| 20260505173740 | 3 | 171 | 1.6 | 12.9 | 0.10 | 0.13 | 0.13 | 92 | 1014.2 |
| 20260505173242 | 3 | 216 | 1.6 | 12.9 | 0.10 | 0.13 | 0.13 | 92 | 1014.2 |
| 20260505172740 | 3 | 205 | 1.6 | 9.7 | 0.08 | 0.10 | 0.13 | 92 | 1014.3 |
| 20260505172241 | 3 | 77 | 3.2 | 9.7 | 0.08 | 0.10 | 0.10 | 92 | 1014.3 |
| 20260505171734 | 3 | 208 | 3.2 | 9.7 | 0.05 | 0.08 | 0.08 | 91 | 1014.3 |
| 20260505171456 | 3 | 169 | 3.2 | 11.3 | 0.05 | 0.08 | 0.08 | 91 | 1014.5 |
| 20260505170722 | 3 | 191 | 1.6 | 11.3 | 0.05 | 0.08 | 0.08 | 91 | 1014.5 |
| 20260505170436 | 3 | 213 | 3.2 | 9.7 | 0.03 | 0.05 | 0.05 | 91 | 1014.5 |
| 20260505165710 | 3 | 130 | 3.2 | 11.3 | 0.03 | 0.05 | 0.05 | 90 | 1014.6 |
| 20260505165205 | 3 | 217 | 3.2 | 11.3 | 0.00 | 0.03 | 0.03 | 90 | 1014.6 |
| 20260505164658 | 4 | 200 | 3.2 | 11.3 | 0.00 | 0.03 | 0.03 | 90 | 1014.5 |
| 20260505164152 | 4 | 188 | 3.2 | 11.3 | 0.00 | 0.03 | 0.03 | 89 | 1014.5 |
| 20260505163646 | 4 | 84 | 3.2 | 6.4 | 0.00 | 0.03 | 0.03 | 89 | 1014.5 |
| 20260505163141 | 4 | 135 | 3.2 | 12.9 | 0.00 | 0.03 | 0.03 | 89 | 1014.6 |
| 20260505162633 | 4 | 134 | 3.2 | 12.9 | 0.00 | 0.03 | 0.03 | 88 | 1014.5 |
| 20260505162128 | 4 | 183 | 3.2 | 11.3 | 0.00 | 0.03 | 0.03 | 88 | 1014.3 |
| 20260505161845 | 4 | 94 | 3.2 | 11.3 | 0.00 | 0.03 | 0.03 | 88 | 1014.5 |
| 20260505161116 | 5 | 102 | 1.6 | 8.0 | 0.00 | 0.03 | 0.03 | 87 | 1014.5 |
| 20260505160611 | 5 | 55 | 1.6 | 6.4 | 0.00 | 0.03 | 0.03 | 87 | 1014.5 |
| 20260505160105 | 5 | 97 | 1.6 | 8.0 | 0.00 | 0.03 | 0.03 | 86 | 1014.3 |
| 20260505153029 | 5 | 175 | 1.6 | 4.8 | 0.00 | 0.03 | 0.03 | 86 | 1014.3 |
| 20260505152523 | 5 | 92 | 1.6 | 4.8 | 0.00 | 0.03 | 0.03 | 86 | 1014.3 |
| 20260505152016 | 5 | 148 | 1.6 | 6.4 | 0.00 | 0.03 | 0.03 | 86 | 1014.3 |
| 20260505151733 | 5 | 207 | 1.6 | 6.4 | 0.00 | 0.03 | 0.03 | 85 | 1014.3 |
| 20260505151005 | 5 | 70 | 3.2 | 6.4 | 0.00 | 0.03 | 0.03 | 84 | 1014.3 |
| 20260505150459 | 5 | 140 | 3.2 | 11.3 | 0.00 | 0.03 | 0.03 | 84 | 1014.3 |
| 20260505140347 | 6 | 90 | 3.2 | 14.5 | 0.00 | 0.03 | 0.03 | 82 | 1014.1 |
| 20260505124831 | 6 | 105 | 1.6 | 6.4 | 0.00 | 0.03 | 0.03 | 82 | 1013.5 |
| 20260505124329 | 6 | 113 | 1.6 | 4.8 | 0.00 | 0.03 | 0.03 | 81 | 1013.4 |
| 20260505123830 | 6 | 124 | 1.6 | 4.8 | 0.00 | 0.03 | 0.03 | 81 | 1013.4 |
| 20260505123332 | 6 | 106 | 1.6 | 4.8 | 0.00 | 0.03 | 0.03 | 80 | 1013.4 |
| 20260505123050 | 6 | 111 | 1.6 | 4.8 | 0.00 | 0.03 | 0.03 | 80 | 1013.1 |
| 20260505122328 | 6 | 90 | 1.6 | 8.0 | 0.00 | 0.03 | 0.03 | 79 | 1013.1 |
| 20260505121831 | 6 | 90 | 3.2 | 9.7 | 0.00 | 0.03 | 0.03 | 79 | 1012.8 |
| 20260505121328 | 6 | 196 | 3.2 | 9.7 | 0.00 | 0.03 | 0.03 | 78 | 1012.7 |
| 20260505120825 | 6 | 117 | 1.6 | 9.7 | 0.00 | 0.03 | 0.03 | 78 | 1012.5 |
| 20260505120327 | 6 | 71 | 1.6 | 9.7 | 0.00 | 0.03 | 0.03 | 77 | 1012.4 |
| 20260505115826 | 6 | 127 | 1.6 | 8.0 | 0.00 | 0.03 | 0.03 | 77 | 1012.3 |
| 20260505115551 | 6 | 118 | 1.6 | 9.7 | 0.00 | 0.03 | 0.03 | 76 | 1012.2 |
| 20260505114823 | 6 | 121 | 3.2 | 9.7 | 0.00 | 0.03 | 0.03 | 75 | 1012.2 |
| 20260505114544 | 6 | 99 | 3.2 | 9.7 | 0.00 | 0.03 | 0.03 | 75 | 1012.1 |
| 20260505113824 | 7 | 147 | 3.2 | 9.7 | 0.00 | 0.03 | 0.03 | 74 | 1012.1 |
| 20260505113802 | 7 | 94 | 3.2 | 11.3 | 0.00 | 0.03 | 0.03 | 74 | 1012.1 |
| 20260505113424 | 7 | 94 | 3.2 | 11.3 | 0.00 | 0.03 | 0.03 | 74 | 1012.1 |
| 20260505112540 | 7 | 78 | 3.2 | 11.3 | 0.00 | 0.03 | 0.03 | 74 | 1012.1 |
| 20260505111819 | 7 | 173 | 3.2 | 11.3 | 0.00 | 0.03 | 0.03 | 74 | 1011.9 |
| 20260505111544 | 7 | 227 | 3.2 | 9.7 | 0.00 | 0.03 | 0.03 | 75 | 1011.9 |
| 20260505110819 | 7 | 226 | 1.6 | 6.4 | 0.00 | 0.03 | 0.03 | 76 | 1011.9 |
| 20260505110319 | 7 | 142 | 3.2 | 9.7 | 0.00 | 0.03 | 0.03 | 78 | 1012.1 |
| 20260505102041 | 7 | 207 | 3.2 | 14.5 | 0.00 | 0.03 | 0.03 | 82 | 1012.2 |
| 20260505101314 | 7 | 223 | 1.6 | 8.0 | 0.00 | 0.03 | 0.03 | 83 | 1012.2 |
| 20260505100816 | 7 | 194 | 1.6 | 11.3 | 0.00 | 0.03 | 0.03 | 84 | 1012.3 |
| 20260505100315 | 7 | 196 | 1.6 | 11.3 | 0.00 | 0.03 | 0.03 | 84 | 1012.3 |
| 20260505095816 | 7 | 133 | 1.6 | 6.4 | 0.00 | 0.03 | 0.03 | 85 | 1012.2 |
| 20260505095313 | 7 | 126 | 1.6 | 6.4 | 0.00 | 0.03 | 0.03 | 86 | 1012.3 |
| 20260505094810 | 6 | 201 | 0.0 | 3.2 | 0.00 | 0.03 | 0.03 | 87 | 1012.3 |
| 20260505094309 | 6 | 201 | 0.0 | 3.2 | 0.00 | 0.03 | 0.03 | 87 | 1012.3 |
| 20260505093809 | 6 | 207 | 0.0 | 0.0 | 0.00 | 0.03 | 0.03 | 86 | 1012.4 |
| 20260505093309 | 7 | 207 | 0.0 | 0.0 | 0.00 | 0.03 | 0.03 | 86 | 1012.3 |
| 20260505092809 | 7 | 207 | 0.0 | 0.0 | 0.00 | 0.03 | 0.03 | 86 | 1012.3 |
| 20260505092308 | 7 | 207 | 0.0 | 0.0 | 0.00 | 0.03 | 0.03 | 85 | 1012.3 |
| 20260505091806 | 7 | 207 | 0.0 | 0.0 | 0.00 | 0.03 | 0.03 | 85 | 1012.2 |
| 20260505091305 | 7 | 207 | 0.0 | 0.0 | 0.00 | 0.03 | 0.03 | 85 | 1012.3 |
| 20260505090804 | 7 | 207 | 0.0 | 0.0 | 0.00 | 0.03 | 0.03 | 85 | 1012.4 |
| 20260505090303 | 7 | 207 | 0.0 | 0.0 | 0.00 | 0.03 | 0.03 | 84 | 1012.4 |
| 20260505085804 | 7 | 207 | 0.0 | 0.0 | 0.00 | 0.03 | 0.03 | 84 | 1012.4 |
| 20260505085301 | 7 | 207 | 0.0 | 0.0 | 0.00 | 0.03 | 0.03 | 84 | 1012.3 |
| 20260505084803 | 7 | 207 | 0.0 | 0.0 | 0.00 | 0.03 | 0.03 | 84 | 1012.3 |
| 20260505084301 | 7 | 207 | 0.0 | 0.0 | 0.00 | 0.03 | 0.03 | 84 | 1012.5 |
| 20260505083800 | 7 | 207 | 0.0 | 0.0 | 0.00 | 0.03 | 0.03 | 86 | 1012.5 |
| 20260505083301 | 7 | 207 | 0.0 | 0.0 | 0.00 | 0.03 | 0.03 | 86 | 1012.7 |
| 20260505082755 | 7 | 207 | 0.0 | 3.2 | 0.00 | 0.03 | 0.03 | 86 | 1012.7 |
| 20260505082510 | 7 | 207 | 0.0 | 3.2 | 0.00 | 0.03 | 0.03 | 87 | 1012.8 |
| 20260505081744 | 7 | 207 | 0.0 | 1.6 | 0.00 | 0.03 | 0.03 | 88 | 1012.8 |
| 20260505081504 | 7 | 207 | 0.0 | 3.2 | 0.00 | 0.03 | 0.03 | 88 | 1012.9 |
| 20260505080731 | 7 | 207 | 0.0 | 3.2 | 0.00 | 0.03 | 0.03 | 88 | 1012.8 |
| 20260505080225 | 7 | 207 | 0.0 | 1.6 | 0.00 | 0.03 | 0.03 | 88 | 1012.8 |
| 20260505075949 | 7 | 207 | 0.0 | 1.6 | 0.00 | 0.03 | 0.03 | 88 | 1012.8 |
| 20260505075213 | 7 | 207 | 0.0 | 1.6 | 0.00 | 0.03 | 0.03 | 88 | 1012.9 |
| 20260505074707 | 7 | 207 | 0.0 | 1.6 | 0.00 | 0.03 | 0.03 | 89 | 1012.9 |
| 20260505074200 | 7 | 207 | 0.0 | 1.6 | 0.00 | 0.03 | 0.03 | 89 | 1013.0 |
| 20260505074148 | 7 | 207 | 0.0 | 0.0 | 0.00 | 0.03 | 0.03 | 89 | 1012.9 |
| 20260505073411 | 7 | 207 | 0.0 | 0.0 | 0.00 | 0.03 | 0.03 | 89 | 1013.0 |
| 20260505072644 | 7 | 207 | 0.0 | 0.0 | 0.00 | 0.03 | 0.03 | 88 | 1013.0 |
| 20260505072404 | 7 | 207 | 0.0 | 0.0 | 0.00 | 0.03 | 0.03 | 88 | 1013.0 |
| 20260505071633 | 7 | 207 | 0.0 | 0.0 | 0.03 | 0.03 | 0.03 | 88 | 1012.9 |
| 20260505071125 | 7 | 207 | 0.0 | 0.0 | 0.03 | 0.03 | 0.03 | 87 | 1013.0 |
| 20260505070618 | 7 | 207 | 0.0 | 1.6 | 0.03 | 0.03 | 0.03 | 87 | 1012.9 |
| 20260505070113 | 7 | 207 | 0.0 | 1.6 | 0.03 | 0.03 | 0.03 | 86 | 1013.0 |
| 20260505065607 | 8 | 207 | 0.0 | 0.0 | 0.03 | 0.03 | 0.03 | 86 | 1012.9 |
| 20260505065101 | 8 | 207 | 0.0 | 0.0 | 0.03 | 0.03 | 0.03 | 85 | 1012.9 |
| 20260505064555 | 8 | 207 | 0.0 | 0.0 | 0.03 | 0.03 | 0.03 | 85 | 1012.8 |
| 20260505064049 | 8 | 207 | 0.0 | 0.0 | 0.03 | 0.03 | 0.03 | 84 | 1012.8 |
| 20260505063543 | 8 | 207 | 0.0 | 0.0 | 0.03 | 0.03 | 0.03 | 84 | 1012.9 |
| 20260505063037 | 8 | 207 | 0.0 | 0.0 | 0.03 | 0.03 | 0.03 | 83 | 1013.1 |
| 20260505062532 | 8 | 207 | 0.0 | 0.0 | 0.03 | 0.03 | 0.03 | 81 | 1013.0 |
| 20260505062025 | 9 | 207 | 0.0 | 0.0 | 0.03 | 0.03 | 0.03 | 80 | 1013.0 |
| 20260505061518 | 9 | 207 | 0.0 | 0.0 | 0.00 | 0.00 | 0.00 | 78 | 1013.0 |
| 20260505061018 | 9 | 207 | 0.0 | 1.6 | 0.00 | 0.00 | 0.00 | 76 | 1013.3 |
| 20260505060515 | 10 | 207 | 0.0 | 3.2 | 0.00 | 0.00 | 0.00 | 75 | 1013.3 |
| 20260505060015 | 10 | 207 | 0.0 | 3.2 | 0.00 | 0.00 | 0.00 | 75 | 1013.3 |
| 20260505055515 | 10 | 207 | 0.0 | 1.6 | 0.00 | 0.00 | 0.00 | 73 | 1013.3 |
| 20260505055013 | 10 | 207 | 0.0 | 3.2 | 0.00 | 0.00 | 0.00 | 72 | 1013.4 |
| 20260505054512 | 10 | 205 | 1.6 | 4.8 | 0.00 | 0.00 | 0.00 | 70 | 1013.3 |
| 20260505054011 | 10 | 205 | 1.6 | 4.8 | 0.00 | 0.00 | 0.00 | 68 | 1013.4 |
| 20260505053512 | 10 | 204 | 0.0 | 4.8 | 0.00 | 0.00 | 0.00 | 67 | 1013.3 |
| 20260505053013 | 10 | 205 | 1.6 | 6.4 | 0.00 | 0.00 | 0.00 | 67 | 1013.1 |
| 20260505052512 | 10 | 209 | 1.6 | 6.4 | 0.00 | 0.00 | 0.00 | 67 | 1013.1 |
| 20260505052011 | 10 | 225 | 1.6 | 4.8 | 0.00 | 0.00 | 0.00 | 67 | 1013.0 |
| 20260505051512 | 10 | 219 | 1.6 | 6.4 | 0.00 | 0.00 | 0.00 | 67 | 1013.0 |
| 20260505051012 | 10 | 219 | 1.6 | 6.4 | 0.00 | 0.00 | 0.00 | 68 | 1013.0 |
| 20260505050509 | 10 | 226 | 0.0 | 0.0 | 0.00 | 0.00 | 0.00 | 68 | 1013.0 |
| 20260505041003 | 10 | 226 | 0.0 | 0.0 | 0.00 | 0.00 | 0.00 | 66 | 1012.7 |
| 20260505040500 | 10 | 226 | 0.0 | 0.0 | 0.00 | 0.00 | 0.00 | 66 | 1012.5 |
| 20260505040007 | 10 | 226 | 0.0 | 0.0 | 0.00 | 0.00 | 0.00 | 65 | 1012.7 |
| 20260505035503 | 10 | 226 | 0.0 | 0.0 | 0.00 | 0.00 | 0.00 | 65 | 1012.5 |
| 20260505035227 | 10 | 226 | 0.0 | 1.6 | 0.00 | 0.00 | 0.00 | 65 | 1012.5 |
| 20260505034501 | 10 | 226 | 0.0 | 1.6 | 0.00 | 0.00 | 0.00 | 64 | 1012.4 |
| 20260505034227 | 10 | 226 | 0.0 | 0.0 | 0.00 | 0.00 | 0.00 | 63 | 1012.4 |
| 20260505033500 | 10 | 226 | 0.0 | 0.0 | 0.00 | 0.00 | 0.00 | 64 | 1012.3 |
| 20260505033002 | 10 | 226 | 0.0 | 3.2 | 0.00 | 0.00 | 0.00 | 63 | 1012.3 |
| 20260505032501 | 10 | 226 | 0.0 | 3.2 | 0.00 | 0.00 | 0.00 | 63 | 1012.1 |
| 20260505032002 | 10 | 226 | 0.0 | 0.0 | 0.00 | 0.00 | 0.00 | 63 | 1012.1 |
| 20260505031723 | 10 | 226 | 0.0 | 0.0 | 0.00 | 0.00 | 0.00 | 63 | 1011.9 |
| 20260505031003 | 10 | 226 | 0.0 | 0.0 | 0.00 | 0.00 | 0.00 | 62 | 1011.9 |
| 20260505030502 | 11 | 226 | 0.0 | 0.0 | 0.00 | 0.00 | 0.00 | 62 | 1011.8 |
| 20260505030001 | 11 | 226 | 0.0 | 0.0 | 0.00 | 0.00 | 0.00 | 61 | 1011.6 |
| 20260505025500 | 11 | 226 | 0.0 | 4.8 | 0.00 | 0.00 | 0.00 | 61 | 1011.6 |
| 20260505025001 | 11 | 226 | 1.6 | 4.8 | 0.00 | 0.00 | 0.00 | 60 | 1011.7 |
| 20260505024458 | 11 | 226 | 1.6 | 6.4 | 0.00 | 0.00 | 0.00 | 60 | 1011.7 |
| 20260505023955 | 11 | 227 | 1.6 | 6.4 | 0.00 | 0.00 | 0.00 | 61 | 1011.8 |
| 20260505023711 | 11 | 231 | 1.6 | 6.4 | 0.00 | 0.00 | 0.00 | 61 | 1011.8 |
| 20260505022953 | 11 | 198 | 1.6 | 8.0 | 0.00 | 0.00 | 0.00 | 61 | 1011.9 |
| 20260505022447 | 11 | 135 | 1.6 | 8.0 | 0.00 | 0.00 | 0.00 | 60 | 1011.8 |
| 20260505022209 | 11 | 211 | 0.0 | 3.2 | 0.00 | 0.00 | 0.00 | 61 | 1011.8 |
| 20260505021443 | 11 | 214 | 0.0 | 4.8 | 0.00 | 0.00 | 0.00 | 61 | 1011.7 |
| 20260505021216 | 11 | 214 | 0.0 | 8.0 | 0.00 | 0.00 | 0.00 | 61 | 1011.6 |
| 20260505020442 | 11 | 217 | 1.6 | 8.0 | 0.00 | 0.00 | 0.00 | 61 | 1011.6 |
| 20260505015940 | 12 | 223 | 1.6 | 11.3 | 0.00 | 0.00 | 0.00 | 60 | 1011.8 |
| 20260505015442 | 12 | 124 | 3.2 | 11.3 | 0.00 | 0.00 | 0.00 | 58 | 1011.8 |
| 20260505014941 | 12 | 227 | 3.2 | 11.3 | 0.00 | 0.00 | 0.00 | 54 | 1011.6 |
| 20260505014440 | 12 | 205 | 3.2 | 8.0 | 0.00 | 0.00 | 0.00 | 55 | 1011.2 |
| 20260505014202 | 12 | 215 | 3.2 | 11.3 | 0.00 | 0.00 | 0.00 | 55 | 1011.2 |
| 20260505013438 | 12 | 175 | 3.2 | 11.3 | 0.00 | 0.00 | 0.00 | 55 | 1011.1 |
| 20260505012936 | 12 | 196 | 4.8 | 11.3 | 0.00 | 0.00 | 0.00 | 56 | 1011.1 |
| 20260505012704 | 12 | 191 | 6.4 | 11.3 | 0.00 | 0.00 | 0.00 | 55 | 1011.1 |
| 20260505011935 | 13 | 178 | 6.4 | 16.1 | 0.00 | 0.00 | 0.00 | 53 | 1011.1 |
| 20260505011657 | 13 | 207 | 6.4 | 17.7 | 0.00 | 0.00 | 0.00 | 50 | 1011.1 |
| 20260505011153 | 14 | 196 | 6.4 | 17.7 | 0.00 | 0.00 | 0.00 | 47 | 1011.0 |
| 20260505010435 | 15 | 327 | 4.8 | 14.5 | 0.00 | 0.00 | 0.00 | 42 | 1010.6 |
| 20260505010152 | 15 | 196 | 4.8 | 11.3 | 0.00 | 0.00 | 0.00 | 41 | 1010.5 |
| 20260505005430 | 16 | 192 | 4.8 | 11.3 | 0.00 | 0.00 | 0.00 | 39 | 1010.3 |
| 20260505004923 | 16 | 191 | 3.2 | 9.7 | 0.00 | 0.00 | 0.00 | 38 | 1010.0 |
| 20260505004639 | 16 | 221 | 1.6 | 14.5 | 0.00 | 0.00 | 0.00 | 38 | 1009.4 |
| 20260505003911 | 16 | 273 | 1.6 | 14.5 | 0.00 | 0.00 | 0.00 | 38 | 1009.5 |
| 20260505003406 | 16 | 140 | 1.6 | 4.8 | 0.00 | 0.00 | 0.00 | 38 | 1009.3 |
| 20260505003120 | 16 | 132 | 1.6 | 4.8 | 0.00 | 0.00 | 0.00 | 39 | 1009.3 |
| 20260505002353 | 16 | 111 | 1.6 | 12.9 | 0.00 | 0.00 | 0.00 | 37 | 1009.3 |
| 20260505002115 | 16 | 87 | 3.2 | 16.1 | 0.00 | 0.00 | 0.00 | 37 | 1009.4 |
| 20260505001828 | 17 | 39 | 4.8 | 16.1 | 0.00 | 0.00 | 0.00 | 34 | 1009.5 |
| 20260505000835 | 17 | 201 | 3.2 | 11.3 | 0.00 | 0.00 | 0.00 | 34 | 1009.7 |
| 20260505000329 | 18 | 180 | 1.6 | 6.4 | 0.00 | 0.00 | 0.00 | 34 | 1009.3 |
| 20260504235824 | 18 | 180 | 0.0 | 6.4 | 0.00 | 0.00 | 0.00 | 33 | 1009.1 |
| 20260504235318 | 18 | 171 | 0.0 | 1.6 | 0.00 | 0.00 | 0.00 | 34 | 1009.1 |
| 20260504234811 | 18 | 171 | 0.0 | 1.6 | 0.00 | 0.00 | 0.00 | 34 | 1008.8 |
| 20260504234305 | 18 | 171 | 0.0 | 3.2 | 0.00 | 0.00 | 0.00 | 34 | 1008.6 |
| 20260504234022 | 18 | 171 | 0.0 | 8.0 | 0.00 | 0.00 | 0.00 | 34 | 1008.6 |
| 20260504233519 | 18 | 171 | 0.0 | 8.0 | 0.00 | 0.00 | 0.00 | 34 | 1008.6 |
| 20260504233007 | 18 | 150 | 0.0 | 1.6 | 0.00 | 0.00 | 0.00 | 33 | 1008.6 |
| 20260504232241 | 18 | 150 | 0.0 | 1.6 | 0.00 | 0.00 | 0.00 | 34 | 1008.7 |
| 20260504231735 | 18 | 150 | 0.0 | 3.2 | 0.00 | 0.00 | 0.00 | 34 | 1008.6 |
| 20260504231459 | 18 | 150 | 0.0 | 8.0 | 0.00 | 0.00 | 0.00 | 35 | 1008.6 |
| 20260504230723 | 18 | 150 | 0.0 | 8.0 | 0.00 | 0.00 | 0.00 | 37 | 1008.6 |
| 20260504230442 | 18 | 158 | 0.0 | 3.2 | 0.00 | 0.00 | 0.00 | 34 | 1008.5 |
| 20260504225710 | 17 | 158 | 0.0 | 3.2 | 0.00 | 0.00 | 0.00 | 33 | 1008.3 |
| 20260504225423 | 17 | 158 | 0.0 | 4.8 | 0.00 | 0.00 | 0.00 | 35 | 1008.5 |
| 20260504224700 | 17 | 158 | 1.6 | 4.8 | 0.00 | 0.00 | 0.00 | 37 | 1008.7 |
| 20260504224154 | 17 | 158 | 1.6 | 4.8 | 0.00 | 0.00 | 0.00 | 36 | 1008.8 |
| 20260504223647 | 17 | 158 | 3.2 | 6.4 | 0.00 | 0.00 | 0.00 | 37 | 1008.8 |
| 20260504223147 | 17 | 155 | 1.6 | 6.4 | 0.00 | 0.00 | 0.00 | 38 | 1008.8 |
| 20260504222648 | 17 | 132 | 1.6 | 11.3 | 0.00 | 0.00 | 0.00 | 39 | 1008.9 |
| 20260504222148 | 17 | 132 | 1.6 | 11.3 | 0.00 | 0.00 | 0.00 | 42 | 1008.8 |
| 20260504221646 | 17 | 140 | 3.2 | 8.0 | 0.00 | 0.00 | 0.00 | 42 | 1008.9 |
| 20260504221146 | 17 | 121 | 1.6 | 8.0 | 0.00 | 0.00 | 0.00 | 34 | 1009.1 |
| 20260504220913 | 18 | 180 | 1.6 | 8.0 | 0.00 | 0.00 | 0.00 | 34 | 1008.9 |
| 20260504220147 | 18 | 155 | 3.2 | 8.0 | 0.00 | 0.00 | 0.00 | 33 | 1008.9 |
| 20260504215645 | 18 | 273 | 3.2 | 6.4 | 0.00 | 0.00 | 0.00 | 33 | 1008.9 |
| 20260504215146 | 19 | 169 | 3.2 | 17.7 | 0.00 | 0.00 | 0.00 | 32 | 1008.6 |
| 20260504214645 | 20 | 228 | 4.8 | 17.7 | 0.00 | 0.00 | 0.00 | 29 | 1008.6 |